GFSFLT1_prec_pwat_174.txt.gz
Precipitable_Water
0.68 0.79 0.92 1.04 1.10 1.08 1.06 1.04 1.03 1.07 1.05 1.03 1.02 0.95 0.86 0.75 0.66 0.60 0.58 0.55 0.50 0.42 0.42 0.44 0.45 0.44 0.44 0.43 0.40 0.37 0.33 0.31
0.69 0.81 0.93 1.03 1.07 1.04 1.02 1.03 1.02 1.06 1.02 0.97 0.94 0.90 0.83 0.74 0.68 0.61 0.58 0.55 0.50 0.45 0.43 0.45 0.45 0.43 0.43 0.43 0.39 0.35 0.31 0.33
0.67 0.80 0.92 0.95 0.98 1.01 1.01 1.00 0.99 1.00 1.02 0.99 0.96 0.91 0.83 0.73 0.68 0.62 0.59 0.55 0.51 0.46 0.44 0.44 0.45 0.43 0.43 0.42 0.39 0.35 0.34 0.33
0.64 0.77 0.90 0.93 0.95 0.99 1.02 1.01 0.99 0.96 0.99 0.96 0.93 0.86 0.77 0.70 0.65 0.61 0.58 0.54 0.50 0.47 0.45 0.44 0.45 0.45 0.44 0.45 0.40 0.35 0.31 0.33
0.70 0.76 0.90 0.89 0.93 1.04 1.08 1.07 1.01 1.00 0.98 0.90 0.84 0.77 0.69 0.67 0.64 0.60 0.57 0.54 0.48 0.46 0.46 0.45 0.45 0.45 0.46 0.45 0.42 0.38 0.32 0.27
0.73 0.79 0.84 0.87 0.95 0.96 1.05 1.08 1.03 1.01 0.98 0.92 0.84 0.73 0.67 0.66 0.62 0.58 0.55 0.53 0.48 0.46 0.46 0.46 0.45 0.46 0.47 0.45 0.43 0.38 0.33 0.27
0.76 0.81 0.90 0.88 0.95 0.98 1.03 1.06 1.03 1.03 1.02 0.95 0.83 0.76 0.68 0.63 0.60 0.57 0.53 0.49 0.47 0.46 0.46 0.46 0.48 0.47 0.48 0.46 0.44 0.38 0.33 0.29
0.67 0.74 0.81 0.82 0.86 0.91 0.99 1.03 1.00 1.03 0.99 0.94 0.86 0.77 0.70 0.64 0.61 0.57 0.52 0.48 0.47 0.46 0.46 0.47 0.47 0.52 0.49 0.50 0.43 0.37 0.32 0.26
0.55 0.68 0.70 0.74 0.81 0.89 0.95 1.00 0.99 1.01 0.97 0.93 0.86 0.80 0.74 0.70 0.65 0.59 0.52 0.49 0.48 0.48 0.49 0.49 0.51 0.51 0.51 0.48 0.40 0.35 0.30 0.26
0.52 0.69 0.71 0.75 0.80 0.89 0.95 0.98 0.98 1.02 0.98 0.92 0.82 0.81 0.78 0.71 0.69 0.60 0.56 0.55 0.51 0.52 0.51 0.49 0.51 0.54 0.52 0.44 0.36 0.31 0.29 0.26
0.54 0.67 0.71 0.79 0.84 0.90 0.97 1.01 0.99 0.96 0.97 0.90 0.84 0.85 0.77 0.71 0.68 0.68 0.57 0.54 0.55 0.53 0.52 0.55 0.59 0.51 0.43 0.38 0.33 0.30 0.25 0.23
0.67 0.69 0.73 0.77 0.83 0.88 0.96 0.99 0.97 1.00 0.99 0.89 0.84 0.81 0.74 0.69 0.66 0.61 0.61 0.61 0.58 0.56 0.58 0.61 0.50 0.42 0.38 0.33 0.29 0.26 0.22 0.20
0.73 0.75 0.79 0.82 0.85 0.89 0.95 1.01 0.97 0.97 0.94 0.86 0.82 0.81 0.70 0.63 0.60 0.60 0.61 0.60 0.60 0.59 0.63 0.53 0.43 0.38 0.34 0.30 0.26 0.23 0.20 0.17
0.75 0.77 0.79 0.83 0.85 0.88 0.90 0.94 0.92 0.88 0.85 0.82 0.77 0.74 0.68 0.61 0.60 0.62 0.63 0.63 0.64 0.63 0.59 0.42 0.38 0.35 0.31 0.28 0.25 0.22 0.20 0.18
0.69 0.70 0.76 0.78 0.82 0.85 0.89 0.90 0.89 0.84 0.81 0.78 0.73 0.71 0.66 0.59 0.60 0.64 0.64 0.68 0.65 0.63 0.50 0.43 0.39 0.33 0.30 0.26 0.23 0.21 0.21 0.20
0.63 0.67 0.72 0.77 0.79 0.79 0.80 0.80 0.78 0.79 0.77 0.73 0.71 0.71 0.64 0.60 0.61 0.67 0.73 0.73 0.62 0.56 0.49 0.44 0.39 0.32 0.28 0.26 0.23 0.22 0.20 0.19
0.62 0.63 0.66 0.69 0.73 0.70 0.73 0.77 0.79 0.80 0.76 0.72 0.71 0.69 0.62 0.61 0.69 0.77 0.76 0.68 0.57 0.56 0.51 0.43 0.36 0.29 0.28 0.26 0.24 0.22 0.21 0.20
0.60 0.63 0.65 0.67 0.69 0.71 0.70 0.71 0.72 0.73 0.74 0.74 0.73 0.67 0.63 0.65 0.77 0.77 0.71 0.65 0.62 0.61 0.51 0.41 0.34 0.31 0.28 0.26 0.25 0.24 0.22 0.21
0.61 0.65 0.67 0.71 0.69 0.68 0.69 0.70 0.70 0.70 0.70 0.70 0.73 0.70 0.63 0.74 0.74 0.72 0.70 0.64 0.63 0.58 0.49 0.40 0.34 0.31 0.29 0.26 0.24 0.24 0.22 0.21

GFSFLT1_prec_pwat_180.txt.gz
Precipitable_Water
0.66 0.76 0.86 0.93 0.99 1.03 0.98 1.01 1.15 1.23 1.26 1.24 1.16 1.08 1.04 1.05 1.04 0.97 0.93 0.82 0.75 0.69 0.66 0.59 0.55 0.48 0.43 0.43 0.38 0.38 0.41 0.44
0.61 0.70 0.82 0.90 0.97 0.98 0.95 0.94 1.05 1.13 1.11 1.06 1.03 0.96 0.97 0.96 0.98 0.95 0.89 0.81 0.75 0.71 0.65 0.59 0.54 0.47 0.43 0.41 0.39 0.38 0.42 0.46
0.47 0.59 0.73 0.80 0.85 0.93 0.95 0.94 0.99 1.07 1.08 1.09 1.07 0.99 0.97 0.96 0.98 1.00 0.92 0.82 0.77 0.73 0.65 0.59 0.53 0.49 0.43 0.41 0.41 0.38 0.41 0.46
0.38 0.51 0.62 0.73 0.78 0.84 0.87 0.91 0.94 1.04 1.07 1.10 1.04 1.02 0.98 0.93 0.91 0.94 0.92 0.86 0.80 0.74 0.66 0.59 0.58 0.50 0.46 0.44 0.40 0.36 0.35 0.40
0.35 0.43 0.55 0.67 0.73 0.86 0.91 0.91 0.93 1.03 1.07 1.07 1.01 0.95 0.89 0.91 0.90 0.94 0.93 0.87 0.82 0.76 0.66 0.58 0.54 0.50 0.47 0.45 0.41 0.39 0.36 0.34
0.40 0.46 0.57 0.65 0.77 0.83 0.91 0.95 0.94 1.03 1.07 1.10 1.10 1.05 1.03 0.99 0.95 0.93 0.93 0.87 0.81 0.74 0.65 0.60 0.53 0.49 0.47 0.42 0.39 0.39 0.38 0.38
0.44 0.52 0.61 0.67 0.80 0.89 0.94 0.93 0.93 0.99 1.03 1.08 1.11 1.08 1.06 1.01 0.96 0.95 0.93 0.87 0.77 0.70 0.62 0.57 0.52 0.51 0.45 0.43 0.42 0.40 0.39 0.40
0.48 0.47 0.52 0.63 0.70 0.79 0.90 0.93 0.88 0.95 0.97 1.03 1.11 1.11 1.13 1.12 1.06 1.02 0.98 0.90 0.78 0.68 0.61 0.56 0.53 0.47 0.45 0.43 0.42 0.41 0.41 0.40
0.52 0.55 0.53 0.60 0.66 0.74 0.82 0.85 0.88 0.92 0.95 0.99 1.06 1.07 1.13 1.09 1.07 1.07 0.99 0.90 0.79 0.68 0.56 0.57 0.51 0.54 0.48 0.45 0.44 0.45 0.45 0.47
0.57 0.59 0.59 0.59 0.67 0.70 0.76 0.85 0.94 0.93 0.94 0.98 1.00 1.03 1.09 1.10 1.10 1.05 0.97 0.86 0.72 0.60 0.55 0.51 0.57 0.51 0.47 0.47 0.53 0.49 0.52 0.47
0.64 0.61 0.64 0.68 0.74 0.78 0.85 0.92 0.94 0.91 0.93 0.98 1.00 1.02 1.11 1.11 1.09 1.06 0.96 0.84 0.73 0.65 0.56 0.51 0.53 0.50 0.54 0.61 0.53 0.55 0.52 0.46
0.65 0.68 0.70 0.75 0.88 0.87 0.86 0.89 0.90 0.91 0.93 0.97 1.02 1.03 1.07 1.08 1.05 1.01 0.94 0.74 0.64 0.59 0.58 0.58 0.61 0.56 0.60 0.59 0.63 0.59 0.48 0.35
0.72 0.72 0.76 0.80 0.84 0.91 0.91 0.91 0.94 0.94 0.97 1.01 1.01 1.03 1.04 1.02 0.97 0.92 0.87 0.74 0.64 0.61 0.63 0.66 0.60 0.60 0.64 0.66 0.59 0.52 0.36 0.32
0.73 0.80 0.77 0.80 0.84 0.88 0.91 0.93 0.93 0.94 0.95 0.97 0.97 0.99 0.99 0.97 0.98 0.93 0.83 0.71 0.65 0.64 0.68 0.62 0.56 0.60 0.59 0.59 0.55 0.46 0.34 0.29
0.65 0.71 0.81 0.83 0.87 0.88 0.90 0.90 0.93 0.94 0.94 0.95 0.94 0.96 0.95 0.95 0.95 0.86 0.79 0.68 0.62 0.63 0.62 0.56 0.53 0.61 0.58 0.49 0.44 0.37 0.31 0.27
0.56 0.62 0.71 0.78 0.81 0.86 0.91 0.93 0.93 0.92 0.91 0.92 0.93 0.98 0.96 0.95 0.90 0.85 0.79 0.65 0.62 0.63 0.57 0.49 0.62 0.58 0.51 0.42 0.41 0.34 0.29 0.27
0.53 0.59 0.64 0.66 0.76 0.78 0.83 0.87 0.92 0.93 0.90 0.89 0.93 0.93 0.92 0.91 0.87 0.82 0.71 0.62 0.61 0.57 0.51 0.66 0.65 0.52 0.47 0.44 0.38 0.33 0.30 0.26
0.51 0.55 0.59 0.62 0.70 0.76 0.74 0.79 0.83 0.86 0.88 0.88 0.89 0.89 0.87 0.85 0.81 0.76 0.67 0.60 0.54 0.51 0.63 0.68 0.58 0.49 0.46 0.42 0.39 0.32 0.28 0.25
0.52 0.54 0.55 0.64 0.68 0.74 0.76 0.78 0.78 0.79 0.82 0.85 0.85 0.84 0.82 0.78 0.75 0.70 0.64 0.58 0.53 0.57 0.65 0.66 0.58 0.50 0.45 0.43 0.37 0.32 0.28 0.26

GFSFLT1_prec_pwat_183.txt.gz
Precipitable_Water
0.53 0.66 0.76 0.83 0.90 0.96 0.97 0.98 1.01 1.05 1.13 1.21 1.26 1.31 1.31 1.23 1.12 1.08 1.03 1.05 0.99 0.94 0.78 0.69 0.63 0.60 0.55 0.50 0.46 0.47 0.48 0.47
0.41 0.54 0.70 0.81 0.89 0.93 0.94 0.93 0.95 0.98 0.97 1.00 1.08 1.06 1.13 1.12 1.07 1.06 1.06 1.05 1.01 0.93 0.79 0.70 0.64 0.57 0.53 0.48 0.48 0.45 0.46 0.49
0.41 0.43 0.54 0.65 0.73 0.85 0.93 0.92 0.94 0.95 0.98 1.00 1.07 1.09 1.10 1.13 1.12 1.05 1.04 1.03 1.01 0.93 0.79 0.70 0.63 0.63 0.53 0.47 0.48 0.46 0.46 0.49
0.39 0.42 0.47 0.60 0.68 0.76 0.82 0.87 0.94 0.96 1.01 1.02 1.05 1.09 1.07 1.05 1.07 1.01 1.00 1.00 0.98 0.95 0.82 0.71 0.63 0.63 0.50 0.49 0.49 0.47 0.45 0.50
0.41 0.42 0.46 0.54 0.62 0.76 0.87 0.90 0.92 0.95 1.03 0.97 0.94 0.93 0.90 0.99 1.02 1.03 1.00 1.01 1.00 0.97 0.85 0.72 0.70 0.78 0.63 0.50 0.58 0.48 0.46 0.42
0.40 0.46 0.53 0.59 0.66 0.73 0.85 0.97 0.96 0.96 0.98 0.98 0.95 0.97 1.05 1.08 1.05 1.06 1.02 1.00 0.98 0.95 0.87 0.72 0.69 0.61 0.53 0.52 0.49 0.48 0.47 0.41
0.50 0.51 0.52 0.57 0.67 0.74 0.79 0.87 0.93 0.98 0.99 0.99 0.94 0.99 1.00 1.00 1.06 1.04 1.03 0.99 0.95 0.91 0.86 0.73 0.67 0.87 0.59 0.52 0.50 0.47 0.43 0.41
0.55 0.54 0.53 0.56 0.61 0.70 0.77 0.80 0.83 0.91 0.95 0.98 0.98 1.03 1.04 1.03 1.08 1.10 1.06 0.98 0.95 0.93 0.89 0.76 0.68 0.63 0.54 0.54 0.46 0.46 0.41 0.42
0.53 0.58 0.61 0.62 0.67 0.70 0.79 0.81 0.81 0.84 0.88 0.93 0.99 1.06 1.06 1.11 1.12 1.15 1.12 1.01 1.00 0.97 0.91 0.84 0.74 0.56 0.53 0.46 0.45 0.45 0.44 0.41
0.56 0.60 0.64 0.65 0.69 0.76 0.79 0.81 0.83 0.82 0.84 0.88 0.94 1.01 1.04 1.11 1.14 1.16 1.12 1.00 0.99 0.95 0.92 0.83 0.70 0.57 0.53 0.53 0.47 0.42 0.41 0.44
0.61 0.65 0.66 0.72 0.77 0.84 0.90 0.90 0.87 0.87 0.85 0.88 0.93 0.95 1.01 1.08 1.14 1.11 1.07 1.03 0.97 0.96 0.90 0.78 0.66 0.58 0.54 0.50 0.47 0.48 0.45 0.53
0.62 0.68 0.75 0.78 0.81 0.82 0.91 0.91 0.88 0.89 0.89 0.94 0.93 0.96 1.01 1.05 1.05 1.05 1.04 1.00 1.00 0.94 0.90 0.80 0.65 0.52 0.53 0.52 0.53 0.51 0.56 0.59
0.57 0.64 0.74 0.79 0.84 0.86 0.88 0.93 0.93 0.93 0.95 0.97 0.98 0.97 0.96 0.96 0.99 1.01 1.01 0.97 0.91 0.90 0.83 0.74 0.67 0.66 0.59 0.58 0.54 0.59 0.62 0.62
0.53 0.60 0.70 0.76 0.82 0.86 0.89 0.94 0.92 0.94 0.98 0.96 0.96 0.95 0.94 0.95 0.97 0.98 0.96 0.90 0.89 0.86 0.85 0.79 0.72 0.62 0.59 0.57 0.61 0.65 0.59 0.54
0.47 0.54 0.64 0.68 0.78 0.85 0.90 0.92 0.94 0.95 0.94 0.92 0.92 0.93 0.95 0.95 0.97 0.97 0.93 0.89 0.89 0.83 0.74 0.72 0.68 0.63 0.61 0.59 0.66 0.57 0.51 0.49
0.49 0.52 0.57 0.61 0.67 0.77 0.83 0.90 0.93 0.95 0.93 0.91 0.89 0.91 0.92 0.93 0.91 0.91 0.89 0.89 0.82 0.79 0.72 0.68 0.67 0.64 0.59 0.64 0.57 0.51 0.41 0.35
0.49 0.50 0.53 0.57 0.62 0.71 0.76 0.84 0.88 0.91 0.89 0.88 0.89 0.89 0.89 0.88 0.90 0.88 0.86 0.84 0.82 0.70 0.67 0.67 0.61 0.54 0.53 0.59 0.55 0.41 0.38 0.33
0.48 0.49 0.50 0.54 0.61 0.67 0.74 0.79 0.84 0.85 0.85 0.88 0.88 0.87 0.87 0.87 0.87 0.84 0.82 0.80 0.76 0.66 0.64 0.61 0.62 0.52 0.55 0.52 0.44 0.39 0.35 0.34
0.50 0.51 0.49 0.54 0.64 0.66 0.73 0.78 0.80 0.79 0.81 0.83 0.87 0.85 0.83 0.84 0.84 0.81 0.79 0.78 0.70 0.63 0.61 0.58 0.48 0.55 0.55 0.51 0.46 0.39 0.38 0.35

GFSFLT1_prec_pwat_186.txt.gz
Precipitable_Water
0.46 0.49 0.50 0.59 0.78 0.86 0.95 1.05 1.04 1.05 1.09 1.13 1.18 1.21 1.35 1.39 1.38 1.31 1.21 1.13 1.06 1.00 0.97 0.96 0.85 0.78 0.69 0.60 0.58 0.61 0.59 0.57
0.48 0.50 0.52 0.55 0.64 0.81 0.91 0.98 1.02 1.06 1.01 0.97 0.97 0.98 1.14 1.25 1.29 1.31 1.22 1.15 1.11 1.03 0.97 0.98 0.87 0.78 0.69 0.61 0.58 0.59 0.60 0.58
0.44 0.48 0.52 0.52 0.54 0.69 0.81 0.93 1.03 1.03 1.06 1.06 1.07 1.06 1.09 1.17 1.20 1.19 1.22 1.17 1.12 1.07 1.02 1.00 0.90 0.78 0.70 0.62 0.58 0.56 0.60 0.56
0.46 0.47 0.49 0.52 0.56 0.65 0.72 0.81 0.91 0.94 1.02 1.08 1.11 1.07 1.06 1.06 1.08 1.12 1.17 1.20 1.15 1.06 1.03 1.02 0.94 0.81 0.68 0.62 0.60 0.58 0.57 0.55
0.48 0.51 0.51 0.51 0.53 0.66 0.78 0.87 0.96 0.92 0.91 0.92 0.96 0.95 0.87 0.97 1.04 1.09 1.12 1.10 1.12 1.07 1.02 1.00 0.95 0.83 0.69 0.63 0.60 0.62 0.64 0.49
0.48 0.52 0.58 0.62 0.62 0.63 0.72 0.83 0.93 1.00 0.94 0.89 0.91 0.91 0.97 1.02 1.05 1.07 1.08 1.12 1.11 1.09 1.06 1.01 0.95 0.83 0.72 0.62 0.60 0.72 0.66 0.56
0.49 0.55 0.61 0.61 0.66 0.69 0.71 0.77 0.90 1.01 0.95 0.92 0.89 0.90 0.94 0.93 0.94 1.04 1.07 1.05 1.08 1.08 1.08 1.00 0.95 0.84 0.72 0.65 0.72 0.65 0.61 0.67
0.50 0.53 0.57 0.63 0.65 0.69 0.75 0.78 0.83 0.97 0.93 0.90 0.87 0.89 0.97 0.97 0.92 0.99 1.04 1.06 1.06 1.07 1.05 0.97 0.92 0.86 0.74 0.64 0.64 0.75 0.81 0.56
0.48 0.53 0.56 0.61 0.66 0.70 0.74 0.79 0.83 0.96 0.96 0.92 0.93 0.91 0.95 0.99 0.96 1.00 1.06 1.13 1.11 1.13 1.09 1.01 0.91 0.84 0.74 0.68 0.78 0.91 0.66 0.51
0.41 0.50 0.54 0.59 0.66 0.72 0.78 0.81 0.89 0.95 1.03 0.98 0.95 0.92 0.93 0.92 0.98 1.04 1.08 1.14 1.14 1.12 1.06 1.05 0.95 0.78 0.69 0.73 0.84 0.68 0.54 0.59
0.39 0.47 0.52 0.56 0.63 0.70 0.81 0.86 0.88 1.01 1.07 0.99 0.96 0.92 0.93 0.92 0.96 0.98 1.04 1.12 1.11 1.11 1.06 1.03 0.87 0.76 0.75 0.70 0.67 0.56 0.53 0.51
0.35 0.39 0.49 0.53 0.59 0.68 0.78 0.87 0.89 0.94 1.06 1.05 1.01 0.98 0.95 0.94 0.92 0.96 0.99 1.06 1.09 1.06 1.06 0.95 0.87 0.79 0.71 0.69 0.63 0.68 0.59 0.50
0.42 0.43 0.47 0.53 0.59 0.68 0.72 0.81 0.89 0.91 0.97 1.02 0.99 0.99 0.97 0.98 0.93 0.93 0.95 0.97 1.03 1.00 0.98 0.88 0.83 0.80 0.82 0.77 0.71 0.64 0.53 0.52
0.41 0.48 0.51 0.53 0.61 0.66 0.70 0.80 0.85 0.91 0.94 0.94 0.97 0.95 0.98 0.96 0.96 0.94 0.94 0.97 0.96 0.94 0.90 0.88 0.91 0.86 0.82 0.74 0.65 0.60 0.61 0.67
0.37 0.46 0.49 0.55 0.60 0.63 0.67 0.74 0.85 0.90 0.91 0.91 0.91 0.91 0.94 0.95 0.97 0.95 0.95 0.95 0.94 0.93 0.92 0.91 0.86 0.84 0.80 0.70 0.66 0.69 0.66 0.63
0.33 0.42 0.48 0.50 0.56 0.59 0.63 0.74 0.81 0.89 0.85 0.85 0.86 0.89 0.90 0.92 0.91 0.91 0.91 0.91 0.91 0.90 0.87 0.87 0.85 0.77 0.77 0.73 0.68 0.56 0.61 0.56
0.40 0.44 0.44 0.48 0.49 0.55 0.58 0.72 0.80 0.86 0.84 0.82 0.84 0.83 0.86 0.88 0.89 0.88 0.88 0.89 0.89 0.89 0.85 0.82 0.78 0.77 0.76 0.64 0.53 0.58 0.58 0.50
0.37 0.39 0.43 0.50 0.49 0.54 0.59 0.69 0.78 0.82 0.82 0.82 0.81 0.81 0.79 0.79 0.84 0.84 0.83 0.83 0.83 0.80 0.79 0.78 0.77 0.74 0.65 0.58 0.55 0.60 0.57 0.51
0.44 0.46 0.48 0.53 0.52 0.56 0.62 0.72 0.75 0.78 0.79 0.81 0.80 0.80 0.77 0.79 0.80 0.79 0.80 0.80 0.79 0.78 0.77 0.76 0.75 0.71 0.65 0.59 0.56 0.58 0.50 0.41